Regional Weather Roundup
Issued by NWS

Home | Current Version | Previous Version | Text Only | Print | Product List | Glossary On
Versions: 1 2 3 4 5 6 7 8 9 10 11 12 13 14 15 16 17 18 19 20 21 22 23 24 25 26 27 28 29 30 31 32 33 34 35 36 37 38 39 40 41 42 43 44 45 46 47 48 49 50
000
ASUS43 KTOP 210608
RWRKS

WEATHER ROUNDUP FOR KANSAS
NATIONAL WEATHER SERVICE GOODLAND KS
100 AM CDT TUE APR 21 2015

NOTE:  "FAIR" INDICATES FEW OR NO CLOUDS BELOW 12,000 FEET WITH NO
SIGNIFICANT WEATHER AND/OR OBSTRUCTIONS TO VISIBILITY.

KSZ001>006-013>018-027>032-041>047-210700-
NORTHWEST KANSAS

CITY           SKY/WX    TMP DP  RH WIND       PRES   REMARKS
GOODLAND       CLEAR     40  31  70 SW8       29.94S
6HR MIN TEMP:  36; 6HR MAX TEMP:  57;

HAYS           FAIR      39  27  60 SW5       29.92S
HILL CITY      FAIR      41  31  67 SW6       29.91S
6HR MIN TEMP:  40; 6HR MAX TEMP:  60;

RUSSELL        FAIR      41  32  70 S8        29.90R
6HR MIN TEMP:  41; 6HR MAX TEMP:  59;

$$

KSZ061>065-074>080-084>089-210700-
SOUTHWEST KANSAS

CITY           SKY/WX    TMP DP  RH WIND       PRES   REMARKS
DODGE CITY     CLOUDY    52  32  46 SW10      29.96R
6HR MIN TEMP:  46; 6HR MAX TEMP:  60;

ELKHART          N/A     46  37  71 S6          N/A
GARDEN CITY    CLOUDY    49  32  52 S5        29.95R
6HR MIN TEMP:  46; 6HR MAX TEMP:  59;

GREAT BEND     CLOUDY    45  37  76 CALM      29.92S
LIBERAL        FAIR      45  30  57 S6        29.97R
PRATT          FAIR      43  36  75 SW8       29.94S
$$

KSZ066>073-081>083-090>101-210700-
SOUTHEAST KANSAS

CITY           SKY/WX    TMP DP  RH WIND       PRES   REMARKS
CHANUTE        CLOUDY    47  39  74 SW3       29.92R
6HR MIN TEMP:  44; 6HR MAX TEMP:  58;

COFFEYVILLE    FAIR      49  38  65 SW8       29.94R
6HR MIN TEMP:  46; 6HR MAX TEMP:  60;

HUTCHINSON     MOCLDY    43  37  79 CALM      29.92S
6HR MIN TEMP:  40; 6HR MAX TEMP:  62;

MEDICINE LODGE   N/A     50  37  61 S6        29.93S
NEWTON         CLOUDY    48  34  57 SW5       29.93R
PARSONS        FAIR      43  40  89 CALM      29.94R
6HR MIN TEMP:  42; 6HR MAX TEMP:  59;

WICHITA INTL   MOCLDY    46  37  71 SW7       29.92R
6HR MIN TEMP:  46; 6HR MAX TEMP:  62;

WICHITA JABRA  FAIR      50  37  61 SW7       29.92S
6HR MIN TEMP:  49; 6HR MAX TEMP:  60;

WICHITA MCCONL MOCLDY    50  38  64 S9        29.92S
WINFIELD       FAIR      44  39  82 S8        29.95R
6HR MIN TEMP:  43; 6HR MAX TEMP:  61;

$$

KSZ007>012-019>026-033>040-048>060-102>105-210700-
NORTHEAST KANSAS

CITY           SKY/WX    TMP DP  RH WIND       PRES   REMARKS
CONCORDIA      MOCLDY    46  28  49 W6        29.89R
6HR MIN TEMP:  44; 6HR MAX TEMP:  59;

EMPORIA        CLOUDY    48  35  60 SW9       29.89S
6HR MIN TEMP:  44; 6HR MAX TEMP:  58;

LAWRENCE       FAIR      37  32  82 N3        29.88R
6HR MIN TEMP:  36; 6HR MAX TEMP:  58;

MANHATTAN      CLOUDY    42  34  73 CALM      29.89R
6HR MIN TEMP:  39; 6HR MAX TEMP:  60;

MARYSVILLE     FAIR      45  30  57 W5        29.87R
OLATHE IND     FAIR      46  31  55 SW9       29.88R
6HR MIN TEMP:  43; 6HR MAX TEMP:  56;

OLATHE EXE     FAIR      47  30  51 W7        29.87R
6HR MIN TEMP:  47; 6HR MAX TEMP:  56;

SALINA         CLOUDY    46  35  65 S3        29.90S
6HR MIN TEMP:  44; 6HR MAX TEMP:  61;

TOPEKA BILLARD MOCLDY    44  33  65 CALM      29.89R
6HR MIN TEMP:  40; 6HR MAX TEMP:  58;

TOPEKA FORBES  MOCLDY    44  32  62 SW9       29.88R
6HR MIN TEMP:  43; 6HR MAX TEMP:  59;

$$


USA.gov is the U.S. government's official web portal to all federal, state and local government web resources and services.